Topeka, KS

12:55 PM CDT on August 19, 2017 (GMT -0500)
Billard Municipal

Weather History for KTOP - November, 2013

Change the Weather History Date:

Friday, November 22, 2013

  Actual Average Record
Temperature  
Mean Temperature 26 °F 40 °F  
Max Temperature 29 °F 51 °F 76 °F (1966)
Min Temperature 23 °F 30 °F 7 °F (1898)
Degree Days  
Heating Degree Days 39 25  
Month to date heating degree days 410 422  
Since 1 July heating degree days 727 778  
Cooling Degree Days 0 0  
Month to date cooling degree days 0 0  
Year to date cooling degree days 1586 1420  
Moisture  
Dew Point 20 °F    
Average Humidity 75    
Maximum Humidity 81    
Minimum Humidity 69    
Precipitation  
Precipitation 0.00 in 0.06 in 1.59 in (1999)
Month to date precipitation 0.88 1.42  
Year to date precipitation 33.45 34.68  
Snow  
Snow 0.00 in 0.10 in 4.20 in (1991)
Month to date snowfall T 0.5  
Year to date snowfall 24.2 12.1  
Since 1 July snowfall T 0.8  
Snow Depth 0.00 in    
Sea Level Pressure  
Sea Level Pressure 30.64 in    
Wind  
Wind Speed 10 mph (NNW)    
Max Wind Speed 23 mph    
Max Gust Speed 29 mph    
Visibility 9 miles    
Events      
T = Trace of Precipitation, MM = Missing Value Source: NWS Daily Summary

Daily Weather History Graph

Daily Weather History Graph

Search for Another Location

Airport or City:

Trip Planner

Search our weather history database for the weather conditions in past years. The results will help you decide how hot, cold, wet, or windy it might be!

Date:

Astronomy

Nov. 22, 2013 Rise Set
Actual Time 7:13 AM CST 5:03 PM CST
Civil Twilight 6:44 AM CST 5:32 PM CST
Nautical Twilight 6:11 AM CST 6:05 PM CST
Astronomical Twilight 5:39 AM CST 6:37 PM CST
Moon 9:36 PM CST (11/22) 10:58 AM CST (11/22)
Length of Visible Light 10h 48m
Length of Day
9h 50m
Waning Gibbous, 78% of the Moon is Illuminated
Nov 22
Waning Gibbous
Nov 25
Last Quarter
Dec 2
New
Dec 9
First Quarter
Dec 17
Full

Hourly Weather History & Observations

Time (CST) Temp. Windchill Dew Point Humidity Pressure Visibility Wind Dir Wind Speed Gust Speed Precip Events Conditions
12:53 AM 28.0 °F 18.6 °F 23.0 °F 81% 30.52 in 7.0 mi NNW 10.4 mph - N/A   Overcast
1:53 AM 27.0 °F 13.9 °F 21.0 °F 78% 30.54 in 8.0 mi NNW 18.4 mph 23.0 mph N/A   Overcast
2:53 AM 26.1 °F 15.0 °F 21.0 °F 81% 30.57 in 9.0 mi NNW 12.7 mph 23.0 mph N/A   Overcast
3:53 AM 26.1 °F 12.7 °F 19.9 °F 78% 30.56 in 9.0 mi NNW 18.4 mph 25.3 mph N/A   Overcast
4:53 AM 25.0 °F 12.6 °F 19.9 °F 81% 30.59 in 8.0 mi NNW 15.0 mph 25.3 mph N/A   Overcast
5:53 AM 25.0 °F 14.2 °F 19.9 °F 81% 30.60 in 8.0 mi North 11.5 mph - N/A   Overcast
6:25 AM 25.0 °F 13.1 °F 19.9 °F 81% 30.59 in 8.0 mi North 13.8 mph - N/A   Overcast
6:53 AM 25.0 °F 17.1 °F 19.9 °F 81% 30.63 in 8.0 mi NNW 6.9 mph - N/A   Overcast
7:53 AM 25.0 °F 14.8 °F 19.9 °F 81% 30.66 in 7.0 mi NNW 10.4 mph - N/A   Overcast
8:05 AM 25.0 °F 14.2 °F 19.9 °F 81% 30.63 in 7.0 mi NNW 11.5 mph - N/A   Overcast
8:20 AM 25.0 °F 13.6 °F 19.9 °F 81% 30.63 in 8.0 mi NW 12.7 mph - N/A   Overcast
8:50 AM 24.8 °F 13.4 °F 17.6 °F 74% 30.64 in 10.0 mi NNW 12.7 mph - N/A   Overcast
8:53 AM 24.1 °F 12.0 °F 18.0 °F 77% 30.67 in 10.0 mi North 13.8 mph - N/A   Overcast
9:49 AM 24.8 °F 14.6 °F 19.4 °F 80% 30.64 in 10.0 mi NNW 10.4 mph - N/A   Scattered Clouds
9:53 AM 25.0 °F 14.2 °F 19.0 °F 78% 30.67 in 10.0 mi NNW 11.5 mph - N/A   Scattered Clouds
10:53 AM 27.0 °F 18.0 °F 21.0 °F 78% 30.71 in 10.0 mi WNW 9.2 mph - N/A   Scattered Clouds
11:12 AM 28.0 °F 18.1 °F 21.9 °F 78% 30.65 in 10.0 mi NW 11.5 mph - N/A   Mostly Cloudy
11:34 AM 28.0 °F 17.0 °F 21.9 °F 78% 30.64 in 10.0 mi NW 13.8 mph - N/A   Mostly Cloudy
11:45 AM 28.0 °F 17.5 °F 21.9 °F 78% 30.64 in 10.0 mi NNW 12.7 mph - N/A   Mostly Cloudy
11:53 AM 28.0 °F 16.5 °F 21.9 °F 78% 30.68 in 10.0 mi NW 15.0 mph - N/A   Mostly Cloudy
12:41 PM 27.0 °F 15.2 °F 21.0 °F 78% 30.65 in 10.0 mi NW 15.0 mph - N/A   Mostly Cloudy
12:53 PM 27.0 °F 15.2 °F 19.9 °F 75% 30.68 in 10.0 mi NW 15.0 mph - N/A   Mostly Cloudy
1:53 PM 28.0 °F 18.1 °F 21.0 °F 75% 30.66 in 10.0 mi NNW 11.5 mph 21.9 mph N/A   Scattered Clouds
2:53 PM 28.9 °F 19.2 °F 21.9 °F 75% 30.65 in 10.0 mi North 11.5 mph - N/A   Partly Cloudy
3:53 PM 28.0 °F 18.1 °F 21.0 °F 75% 30.66 in 10.0 mi North 11.5 mph - N/A   Clear
4:53 PM 28.0 °F 19.3 °F 19.9 °F 72% 30.66 in 10.0 mi NNW 9.2 mph - N/A   Clear
5:53 PM 27.0 °F 18.7 °F 19.9 °F 75% 30.67 in 10.0 mi NNW 8.1 mph - N/A   Clear
6:53 PM 27.0 °F 20.5 °F 19.9 °F 75% 30.66 in 10.0 mi NNW 5.8 mph - N/A   Clear
7:53 PM 26.1 °F 20.5 °F 19.9 °F 78% 30.67 in 10.0 mi NNW 4.6 mph - N/A   Clear
8:53 PM 26.1 °F 19.4 °F 19.0 °F 75% 30.68 in 10.0 mi NNW 5.8 mph - N/A   Clear
9:53 PM 24.1 °F 18.2 °F 17.1 °F 75% 30.68 in 10.0 mi NW 4.6 mph - N/A   Clear
10:53 PM 25.0 °F - 18.0 °F 75% 30.67 in 10.0 mi Calm Calm - N/A   Clear
11:53 PM 25.0 °F 19.3 °F 19.0 °F 78% 30.67 in 10.0 mi WNW 4.6 mph - N/A   Clear